{"data":{"norad_id":69159,"intl_designator":"2026-111M","name":"STARLINK-37343","alt_names":[],"object_type":"PAYLOAD","status":"ACTIVE","operator":null,"country":"US","launch_date":"2026-05-21","launch_site_code":"AFETR","launch_vehicle":null,"mission":null,"orbit_class":"UNKNOWN","rcs_meters":null,"size_class":null,"mass_kg":null,"dimensions":null,"purposes":["comms"],"wikipedia_slug":null,"has_3d_model":false,"image_url":null,"decayed_at":null,"tle_current":{"epoch":"2026-09-20T00:27:35.588160Z","epoch_age_seconds":64711,"freshness":"FRESH","line1":"1 69159U 26111M   26263.01916190  .00010653  00000+0  32577-3 0  9998","line2":"2 69159  53.1580  68.0832 0000926  81.2556 278.8551 15.34418868 18828","mean_motion":15.34418868,"eccentricity":9.26e-5,"inclination_deg":53.158,"raan_deg":68.0832,"arg_perigee_deg":81.2556,"mean_anomaly_deg":278.8551,"bstar":0.00032577,"rev_number":1882,"period_min":93.846604081253,"perigee_km":462.01370449619,"apogee_km":463.28061772283,"semimajor_km":6840.7841611095,"source":"CELESTRAK","updated_at":"2026-09-20T09:00:44.091589Z"}}}